Flag for Switzerland Weather past 2 weeks in Chur, Graubünden, Switzerland

Now
68 °F

Scattered clouds.


Feels Like: 68 °F
Forecast: 51 / 60 °F
Wind: 13 mph from Northeast

Location: Chur-Ems

Current Time: Sep 4, 2015 at 3:07:13 PM

Latest Report: Sep 4, 2015 at 2:00 PM


Visibility: 16 mi

Pressure: 29.92 "Hg (27.93 "Hg at 592m altitude)

Humidity: 51%

Dew point: 49 °F

Location of ChurLocation

Historic Weather in Chur — Graph

°F

Chur temperature yesterday

Maximum temperature yesterday: 66 °F (at 1:00 PM)
Minimum temperature yesterday: 54 °F (at 11:00 PM)
Average temperature yesterday: 59 °F

Past Weeks' High & Low Weather Summary

 TemperatureHumidityPressure
High90 °F (Aug 31, 3:00 PM)96% (Sep 3, 8:00 PM)30.30 "Hg (Sep 3, 8:00 PM)
Low53 °F (Aug 21, 7:00 AM)21% (Aug 31, 3:00 PM)29.65 "Hg (Aug 24, 12:40 PM)
Average68 °F60%30.00 "Hg
* Reported Aug 20 1:00 PM — Sep 4 1:00 PM, Chur, Weather by CustomWeather, © 2015

Note: Actual official high and low records may vary slightly from our data, if they occured in-between our weather recording intervals... More about our weather records

Advertising

Chur weather history for previous 24 hours

 ConditionsComfort  
Time TempWeatherWind HumidityBarometerVisibility
1:00 PM
Fri, Sep 4
66 °FMild.9 mph57%29.95 "HgN/A
12:00 PM63 °FMild.3 mph65%29.99 "HgN/A
11:00 AM60 °FCool.1 mph71%30.02 "HgN/A
10:00 AM57 °FCool.1 mph82%30.04 "HgN/A
9:00 AM55 °FCool.2 mph87%30.05 "HgN/A
8:00 AM54 °FLow clouds.No wind92%30.05 "Hg12 mi
7:00 AM53 °FCool.1 mph94%30.04 "HgN/A
6:00 AM53 °FCool.1 mph93%30.03 "HgN/A
5:00 AM54 °FFog.1 mph94%30.04 "Hg9 mi
4:00 AM54 °FCool.2 mph90%30.03 "HgN/A
3:00 AM54 °FCool.2 mph93%30.03 "HgN/A
2:00 AM54 °FFog.No wind94%30.05 "Hg9 mi
1:00 AM54 °FCool.No wind93%30.05 "HgN/A
12:00 AM54 °FCool.2 mph94%30.05 "HgN/A
11:00 PM
Thu, Sep 3
54 °FFog.1 mph94%30.03 "Hg8 mi
10:00 PM55 °FCool.3 mph89%30.03 "HgN/A
9:00 PM55 °FCool.1 mph93%30.02 "HgN/A
8:00 PM56 °FRain. Low clouds.2 mph96%30.01 "Hg5 mi
7:00 PM56 °FCool.5 mph94%30.00 "HgN/A
6:00 PM57 °FCool.9 mph93%29.97 "HgN/A
5:00 PM58 °FRain. Overcast.12 mph87%29.94 "Hg7 mi
4:00 PM59 °FCool.10 mph83%29.93 "HgN/A
3:00 PM61 °FCool.16 mph79%29.91 "HgN/A
Weather by CustomWeather, © 2015

See weather overviewHow to use our weather pages